EN

Hourly Weather Sliven

Today, 24 October, Saturday

Time Temperature Precipitation Wind Pressure Humidity
00:00 +16°C° 0 mm 1 mps 733 mmHg 58%
01:00 +16°C° 0 mm 1 mps 733 mmHg 60%
02:00 +15°C° 0 mm 1 mps 733 mmHg 62%
03:00 +15°C° 0 mm 1 mps 733 mmHg 63%
04:00 +15°C° 0 mm 1 mps 733 mmHg 64%
05:00 +14°C° 0 mm 1 mps 732 mmHg 66%
06:00 +15°C° 0 mm 1 mps 732 mmHg 64%
07:00 +16°C° 0 mm 1 mps 732 mmHg 61%
08:00 +15°C° 0 mm 0 mps 733 mmHg 59%
09:00 +19°C° 0 mm 1 mps 733 mmHg 52%
10:00 +22°C° 0 mm 1 mps 733 mmHg 45%
11:00 +24°C° 0 mm 1 mps 733 mmHg 38%
12:00 +24°C° 0 mm 1 mps 733 mmHg 36%
13:00 +25°C° 0 mm 1 mps 732 mmHg 34%
14:00 +26°C° 0 mm 1 mps 732 mmHg 32%
15:00 +24°C° 0 mm 1 mps 732 mmHg 36%
16:00 +23°C° 0 mm 1 mps 732 mmHg 40%
17:00 +19°C° 0 mm 0 mps 731 mmHg 44%
18:00 +19°C° 0 mm 0 mps 731 mmHg 46%
19:00 +18°C° 0 mm 0 mps 731 mmHg 47%
20:00 +19°C° 0 mm 1 mps 732 mmHg 48%
21:00 +19°C° 0 mm 1 mps 731 mmHg 49%
22:00 +19°C° 0 mm 1 mps 731 mmHg 49%
23:00 +18°C° 0 mm 1 mps 731 mmHg 50%

Tomorrow, 25 October, Sunday

Time Temperature Precipitation Wind Pressure Humidity
00:00 +18°C° 0 mm 1 mps 731 mmHg 52%
01:00 +18°C° 0 mm 1 mps 731 mmHg 53%
02:00 +16°C° 0 mm 1 mps 731 mmHg 55%
03:00 +16°C° 0 mm 1 mps 731 mmHg 57%
04:00 +15°C° 0 mm 1 mps 730 mmHg 59%
05:00 +15°C° 0 mm 1 mps 730 mmHg 60%
06:00 +14°C° 0 mm 0 mps 730 mmHg 59%
07:00 +15°C° 0 mm 0 mps 731 mmHg 58%
08:00 +15°C° 0 mm 0 mps 731 mmHg 57%
09:00 +17°C° 0 mm 0 mps 731 mmHg 51%
10:00 +20°C° 0 mm 1 mps 731 mmHg 45%
11:00 +22°C° 0 mm 1 mps 731 mmHg 40%
12:00 +22°C° 0 mm 1 mps 731 mmHg 39%
13:00 +22°C° 0 mm 1 mps 731 mmHg 38%
14:00 +23°C° 0 mm 1 mps 730 mmHg 37%
15:00 +22°C° 0 mm 1 mps 730 mmHg 41%
16:00 +21°C° 0 mm 1 mps 730 mmHg 45%
17:00 +19°C° 0 mm 2 mps 730 mmHg 49%
18:00 +17°C° 0 mm 2 mps 730 mmHg 54%
19:00 +16°C° 0 mm 2 mps 730 mmHg 58%
20:00 +15°C° 0 mm 2 mps 730 mmHg 63%
21:00 +15°C° 0 mm 2 mps 730 mmHg 63%
22:00 +15°C° 0 mm 1 mps 730 mmHg 63%
23:00 +15°C° 0 mm 1 mps 730 mmHg 63%

Day after tomorrow, 26 October, Monday

Time Temperature Precipitation Wind Pressure Humidity
00:00 +15°C° 0 mm 1 mps 730 mmHg 66%
01:00 +14°C° 0 mm 1 mps 730 mmHg 69%
02:00 +14°C° 0 mm 1 mps 730 mmHg 72%
03:00 +14°C° 0.1 mm 1 mps 730 mmHg 75%
04:00 +13°C° 0.1 mm 1 mps 730 mmHg 78%
05:00 +13°C° 0.1 mm 1 mps 730 mmHg 80%
06:00 +13°C° 0 mm 1 mps 730 mmHg 80%
07:00 +14°C° 0 mm 1 mps 730 mmHg 80%
08:00 +14°C° 0 mm 1 mps 731 mmHg 80%
09:00 +16°C° 0 mm 1 mps 731 mmHg 72%
10:00 +19°C° 0 mm 1 mps 731 mmHg 64%
11:00 +20°C° 0 mm 1 mps 732 mmHg 57%
12:00 +21°C° 0 mm 1 mps 731 mmHg 54%
13:00 +22°C° 0 mm 1 mps 731 mmHg 50%
14:00 +22°C° 0 mm 1 mps 731 mmHg 47%
15:00 +21°C° 0 mm 1 mps 731 mmHg 51%
16:00 +20°C° 0 mm 1 mps 731 mmHg 55%
17:00 +17°C° 0 mm 0 mps 731 mmHg 58%
18:00 +16°C° 0 mm 0 mps 731 mmHg 62%
19:00 +15°C° 0 mm 0 mps 731 mmHg 65%
20:00 +15°C° 0 mm 0 mps 731 mmHg 68%
21:00 +14°C° 0 mm 0 mps 731 mmHg 69%
22:00 +14°C° 0 mm 0 mps 731 mmHg 69%
23:00 +14°C° 0 mm 0 mps 732 mmHg 70%

, 27 October, Tuesday

Time Temperature Precipitation Wind Pressure Humidity
00:00 +14°C° 0 mm 0 mps 731 mmHg 71%
01:00 +13°C° 0 mm 0 mps 731 mmHg 73%
02:00 +13°C° 0 mm 0 mps 731 mmHg 74%
03:00 +13°C° 0 mm 0 mps 731 mmHg 75%
04:00 +12°C° 0 mm 0 mps 731 mmHg 76%
05:00 +12°C° 0 mm 0 mps 731 mmHg 77%
06:00 +13°C° 0 mm 0 mps 731 mmHg 75%
07:00 +13°C° 0 mm 0 mps 732 mmHg 73%
08:00 +14°C° 0 mm 0 mps 732 mmHg 71%
09:00 +18°C° 0 mm 1 mps 732 mmHg 64%
10:00 +19°C° 0 mm 1 mps 732 mmHg 57%
11:00 +21°C° 0 mm 1 mps 732 mmHg 50%
12:00 +21°C° 0 mm 2 mps 732 mmHg 48%
13:00 +21°C° 0 mm 2 mps 731 mmHg 46%
14:00 +23°C° 0 mm 2 mps 731 mmHg 43%
15:00 +21°C° 0 mm 2 mps 731 mmHg 48%
16:00 +20°C° 0 mm 2 mps 731 mmHg 52%
17:00 +19°C° 0 mm 2 mps 730 mmHg 57%
18:00 +17°C° 0 mm 2 mps 730 mmHg 66%
19:00 +16°C° 0 mm 2 mps 730 mmHg 75%
20:00 +15°C° 0 mm 2 mps 731 mmHg 83%
21:00 +15°C° 0 mm 2 mps 731 mmHg 86%
22:00 +15°C° 0 mm 2 mps 731 mmHg 89%
23:00 +14°C° 0 mm 2 mps 731 mmHg 93%

27 October, Tuesday

Time Temperature Precipitation Wind Pressure Humidity
00:00 +14°C° 0 mm 0 mps 731 mmHg 71%
01:00 +13°C° 0 mm 0 mps 731 mmHg 73%
02:00 +13°C° 0 mm 0 mps 731 mmHg 74%
03:00 +13°C° 0 mm 0 mps 731 mmHg 75%
04:00 +12°C° 0 mm 0 mps 731 mmHg 76%
05:00 +12°C° 0 mm 0 mps 731 mmHg 77%
06:00 +13°C° 0 mm 0 mps 731 mmHg 75%
07:00 +13°C° 0 mm 0 mps 732 mmHg 73%
08:00 +14°C° 0 mm 0 mps 732 mmHg 71%
09:00 +18°C° 0 mm 1 mps 732 mmHg 64%
10:00 +19°C° 0 mm 1 mps 732 mmHg 57%
11:00 +21°C° 0 mm 1 mps 732 mmHg 50%
12:00 +21°C° 0 mm 2 mps 732 mmHg 48%
13:00 +21°C° 0 mm 2 mps 731 mmHg 46%
14:00 +23°C° 0 mm 2 mps 731 mmHg 43%
15:00 +21°C° 0 mm 2 mps 731 mmHg 48%
16:00 +20°C° 0 mm 2 mps 731 mmHg 52%
17:00 +19°C° 0 mm 2 mps 730 mmHg 57%
18:00 +17°C° 0 mm 2 mps 730 mmHg 66%
19:00 +16°C° 0 mm 2 mps 730 mmHg 75%
20:00 +15°C° 0 mm 2 mps 731 mmHg 83%
21:00 +15°C° 0 mm 2 mps 731 mmHg 86%
22:00 +15°C° 0 mm 2 mps 731 mmHg 89%
23:00 +14°C° 0 mm 2 mps 731 mmHg 93%

28 October, Wednesday

Time Temperature Precipitation Wind Pressure Humidity
00:00 +14°C° 0 mm 1 mps 731 mmHg 93%
01:00 +14°C° 0 mm 1 mps 730 mmHg 94%
02:00 +14°C° 0 mm 1 mps 730 mmHg 95%
03:00 +14°C° 0 mm 1 mps 730 mmHg 95%
04:00 +13°C° 0 mm 1 mps 730 mmHg 95%
05:00 +13°C° 0 mm 1 mps 730 mmHg 95%
06:00 +14°C° 0 mm 1 mps 731 mmHg 93%
07:00 +14°C° 0 mm 1 mps 731 mmHg 91%
08:00 +15°C° 0 mm 1 mps 731 mmHg 89%
09:00 +16°C° 0.1 mm 1 mps 731 mmHg 81%
10:00 +19°C° 0.1 mm 1 mps 731 mmHg 73%
11:00 +19°C° 0.1 mm 2 mps 732 mmHg 65%
12:00 +20°C° 0.6 mm 2 mps 731 mmHg 62%
13:00 +20°C° 0.6 mm 2 mps 731 mmHg 59%
14:00 +21°C° 0.6 mm 2 mps 731 mmHg 56%
15:00 +21°C° 0.6 mm 1 mps 731 mmHg 61%
16:00 +20°C° 0.6 mm 1 mps 731 mmHg 66%
17:00 +19°C° 0.6 mm 1 mps 731 mmHg 71%
18:00 +18°C° 0.6 mm 1 mps 731 mmHg 76%
19:00 +16°C° 0.6 mm 1 mps 731 mmHg 80%
20:00 +16°C° 0.6 mm 1 mps 731 mmHg 84%
21:00 +15°C° 0.1 mm 1 mps 731 mmHg 84%
22:00 +15°C° 0.1 mm 1 mps 731 mmHg 83%
23:00 +15°C° 0.1 mm 1 mps 731 mmHg 82%

29 October, Thursday

Time Temperature Precipitation Wind Pressure Humidity
00:00 +15°C° 0.1 mm 1 mps 731 mmHg 82%
01:00 +15°C° 0.1 mm 1 mps 731 mmHg 82%
02:00 +14°C° 0.1 mm 1 mps 731 mmHg 82%
03:00 +14°C° 0 mm 1 mps 731 mmHg 83%
04:00 +14°C° 0 mm 1 mps 731 mmHg 83%
05:00 +14°C° 0 mm 1 mps 731 mmHg 83%
06:00 +14°C° 0 mm 1 mps 732 mmHg 83%
07:00 +14°C° 0 mm 1 mps 732 mmHg 82%
08:00 +14°C° 0 mm 1 mps 732 mmHg 81%
09:00 +16°C° 0 mm 1 mps 732 mmHg 76%
10:00 +17°C° 0 mm 2 mps 733 mmHg 71%
11:00 +18°C° 0 mm 2 mps 733 mmHg 65%
12:00 +19°C° 0.1 mm 2 mps 733 mmHg 64%
13:00 +19°C° 0.1 mm 2 mps 733 mmHg 63%
14:00 +19°C° 0.1 mm 3 mps 733 mmHg 62%
15:00 +18°C° 0.2 mm 2 mps 733 mmHg 66%
16:00 +17°C° 0.2 mm 2 mps 733 mmHg 70%
17:00 +17°C° 0.2 mm 2 mps 733 mmHg 74%
18:00 +16°C° 0 mm 2 mps 733 mmHg 77%
19:00 +15°C° 0 mm 2 mps 734 mmHg 81%
20:00 +14°C° 0 mm 2 mps 734 mmHg 84%
21:00 +14°C° 0 mm 2 mps 734 mmHg 84%
22:00 +14°C° 0 mm 2 mps 735 mmHg 85%
23:00 +14°C° 0 mm 2 mps 735 mmHg 85%
Show more